User: anonymous   Login
Location: ???????
(55.4362°N, 38.1183°E)
Time: 20:03:07
(UTC+00:00)
Language:

SL-16 R/B - Orbit

View from above orbital plane
View from above orbital plane
View from above satellite
View from above satellite

Ground track
Ground track

The orbit data is extracted from the following two-line orbital elements,

1 27006U 01056F   21271.39578296 -.00000012  00000-0  36682-4 0  9992
2 27006  99.5394  43.6296 0014299 206.6506 219.6269 13.70968908990741
Epoch (UTC): 28 September 2021 09:29:55
Eccentricity: 0.0014299
inclination: 99.5394°
perigee height: 985 km
apogee height: 1006 km
right ascension of ascending node: 43.6296°
argument of perigee: 206.6506°
revolutions per day: 13.70968908
mean anomaly at epoch: 219.6269°
orbit number at epoch: 99074

The dashed part of the orbit path shows where the satellite is in the earth's shadow,  

DLR